Location: Roland
(31.1349°N, 85.4372°W)
Time: 19:31:40
(UTC+00:00)

SR - Pass Details

Date: 22 April 2021
Orbit: 573 x 882 km, 66.7° (Epoch: 13 May)

Event Time Altitude Azimuth Distance (km) Brightness Sun altitude
Rises 20:14:29 0° 355° (N) 3,440 ? 49.9°
Reaches altitude 10° 20:18:31 10° 21° (NNE) 2,453 ? 49.1°
Maximum altitude 20:21:07 13° 49° (NE) 2,194 ? 48.6°
Drops below altitude 10° 20:23:38 10° 76° (ENE) 2,368 ? 48.1°
Sets 20:27:23 0° 104° (ESE) 3,220 ? 47.3°
